Location: Peebles
(55.6412°N, 3.1714°W)
Time: 15:16:31
(UTC+01:00)

NOSS 3-3 (A) - Pass Details

Date: 26 September 2021
Orbit: 801 x 1411 km, 63.4° (Epoch: 05 October)

Event Time Altitude Azimuth Distance (km) Brightness Sun altitude
Rises 20:12:29 0° 307° (NW) 3,826 8.5 -10.9°
Reaches altitude 10° 20:14:58 10° 308° (NW) 2,953 7.7 -11.2°
Maximum altitude 20:22:08 88° 37° (NE) 1,226 4.5 -12.2°
Enters shadow 20:29:28 14° 129° (SE) 3,063 6.0 -13.2°
